Location: Slidell
(30.2789°N, 89.7378°W)
Time: 07:28:25
(UTC-06:00)

Daily predictions for brighter satellites

Satellite Brightness Start Highest point End
(mag) Time Altitude Azimuth Time Altitude Azimuth Time Altitude Azimuth
YAOGAN 1 2.7 18:09:50 10° S 18:14:09 82° WSW 18:18:29 10° NNW
Cosmos 1371 Rocket 4.2 18:09:34 10° NNW 18:14:52 84° WSW 18:20:11 10° SSE
Cosmos 1633 3.3 18:13:03 10° SSE 18:16:13 31° E 18:19:24 10° NNE
MTI 3.8 18:13:21 10° N 18:16:32 83° WNW 18:19:43 10° SSW
Okean 3 4.4 18:14:34 10° NNE 18:18:05 26° E 18:21:36 10° SE
Cosmos 1733 Rocket 3.1 18:14:44 10° S 18:19:02 85° W 18:23:22 10° N
ERS-2 3.6 18:17:24 10° ESE 18:20:00 18° ENE 18:22:34 10° NNE
NOSS 0 Rocket 4.1 18:15:29 10° NNW 18:21:42 86° WSW 18:27:55 10° SSE
Cosmos 1238 4.5 18:22:30 10° S 18:25:33 82° W 18:29:12 10° N
ALOS 2.4 18:22:22 10° S 18:27:02 83° WSW 18:31:43 10° NNW
MONITOR-E 4.1 18:24:17 10° S 18:27:18 85° W 18:30:19 10° NNW
CENTAUR R/B 2.4 18:22:39 10° SSW 18:28:23 87° ESE 18:34:54 10° NNE
Cosmos 1812 3.0 18:26:07 10° N 18:29:50 44° E 18:33:31 10° SSE
Cosmos 2263 Rocket 4.0 18:37:06 10° ESE 18:37:15 10° ESE 18:37:15 10° ESE
Cosmos 44 4.1 18:33:48 10° N 18:38:23 33° ENE 18:43:08 10° ESE
Cosmos 2333 Rocket 3.5 18:33:23 10° NW 18:38:44 45° WSW 18:44:02 10° S
Aureole 3 4.4 18:33:37 10° S 18:40:09 81° W 18:45:19 10° N
Meteor 1-25 Rocket 4.1 18:37:25 10° S 18:42:57 81° E 18:48:31 10° N
Cosmos 2056 Rocket 4.4 18:38:41 10° NNW 18:43:59 55° WSW 18:49:14 10° S
Cosmos 1975 Rocket 4.4 18:42:01 10° NNE 18:45:13 19° ENE 18:46:31 17° E
SPOT 3 Rocket 3.6 18:41:09 10° SSE 18:46:19 90° ENE 18:51:33 10° NNW
Lacrosse 5 2.1 18:43:36 10° NW 18:48:39 75° SW 18:53:40 10° SSE
Cosmos 1048 Rocket 4.0 18:44:44 10° S 18:50:04 79° ESE 18:55:23 10° NNE
Cosmos 1452 Rocket 3.5 18:45:03 10° N 18:50:14 58° ENE 18:55:23 10° SSE
Cosmos 158 Rocket 4.3 18:45:27 10° SSW 18:50:18 63° WNW 18:55:08 10° N
Cosmos 1437 Rocket 3.1 18:46:52 10° SSE 18:50:40 43° E 18:54:33 10° NNE
Iridium 4 Rocket 3.2 18:50:40 10° N 18:55:18 56° E 18:59:34 10° SSE
Cosmos 2227 4.4 18:50:04 10° S 18:55:32 48° ESE 19:01:01 10° NNE
Geosat 4.4 18:51:41 10° NE 18:56:22 39° ESE 19:01:02 10° S
Gbstr 26 Del rocket 2.5 18:52:47 10° SW 18:56:31 74° SE 18:58:46 23° NE
COSMOS 2455 3.7 18:51:59 10° SSE 18:56:58 28° ESE 18:59:33 21° ENE
Shenzhou-11 Module 3.0 18:56:09 10° WNW 18:59:00 42° SW 19:00:54 18° SSE
GPS 2-05 Rocket1 3.2 18:56:23 10° SW 18:59:22 38° SSE 19:00:00 33° ESE
Tsikada Rocket 4.2 18:55:33 10° SSE 19:01:42 52° E 19:07:53 10° NNE
Cosmos 1378 Rocket 3.4 19:04:28 10° N 19:08:53 84° E 19:13:19 10° S
Cosmos 1782 Rocket 3.4 19:05:41 10° S 19:10:07 80° E 19:14:33 10° N
Cosmos 1420 Rocket 3.9 19:05:33 10° NNW 19:10:50 74° ENE 19:16:08 10° SSE
Sich 1 Rocket 3.9 19:07:00 10° SSW 19:11:29 71° W 19:15:59 10° N
FengYun 1-2 T 4.3 19:08:16 10° S 19:13:47 78° WSW 19:19:17 10° NNW
OAO 2 Rocket 3.7 19:18:05 10° W 19:22:55 53° N 19:24:26 38° NE
Cosmos 1464 Rocket 4.2 19:17:53 10° N 19:23:59 71° W 19:30:05 10° S
Okean 2 Rocket 2.9 19:23:18 10° S 19:27:39 74° E 19:32:03 10° N
SJ-6B 2.8 19:28:43 16° S 19:31:38 74° WSW 19:35:26 10° NNW
SeaSat 1 2.5 19:32:53 54° ENE 19:32:59 54° ENE 19:37:48 10° NNW
Envisat 2.8 19:31:06 10° SSE 19:36:10 79° ENE 19:41:15 10° N
ARGOS Delta rocket 4.1 19:31:29 10° N 19:36:12 64° WNW 19:40:39 10° SSW
Tiangong 2 3.0 19:36:25 10° NW 19:38:04 27° NW 19:38:04 27° NW
USA 215 4.4 19:37:39 10° NNE 19:43:37 39° NW 19:49:33 10° WSW
Thor Agena Rocket 4.4 19:38:59 10° N 19:43:49 47° WNW 19:48:38 10° SW
Sakura Rocket 4.1 19:39:34 10° W 19:45:32 78° S 19:47:28 53° ESE
SL-16 R/B 2.9 19:42:54 10° NNW 19:48:23 51° WSW 19:53:49 10° S
Cosmos 44 Rocket 3.6 19:43:53 10° NNW 19:48:57 70° WSW 19:50:13 49° S
Meteor 1-13 Rocket 4.3 19:48:15 10° N 19:52:47 59° NNE 19:52:47 59° NNE
Cosmos 494 Rocket 4.1 19:48:43 10° SSW 19:53:55 71° WNW 19:55:49 39° N
Cosmos 921 Rocket 3.8 19:56:17 10° NNW 20:00:38 50° W 20:00:38 50° W
Resurs 01 Rocket 4.2 20:20:12 13° NNW 20:20:12 13° NNW 20:20:45 10° NNW
Cosmos 2263 Rocket 3.4 20:16:02 10° SSW 20:19:05 33° SW 20:19:05 33° SW
CZ-3C R/B 3.3 20:20:11 10° WSW 21:12:39 - E 20:25:19 48° SSE
CZ-4C R/B 4.4 20:19:51 10° N 20:22:51 22° N 20:22:51 22° N
COSMOS 2455 4.2 20:37:15 10° SW 20:42:41 35° WNW 20:42:51 35° NW
